Temp_Advection
nan nan nan nan nan nan nan nan nan nan nan nan nan nan nan nan nan nan nan nan nan nan nan nan nan nan nan nan nan nan nan nan nan nan nan nan nan nan nan nan nan nan nan nan nan nan nan nan nan
nan 0 0 -0 -0 0 -0 -0 -0 -1 -2 -2 -1 0 -0 -0 -0 -0 -0 -0 -0 0 0 -0 0 0 0 0 0 0 -0 0 0 0 0 0 0 0 0 0 0 -0 -0 -0 -0 -0 -0 0 nan
nan 0 0 -0 -0 -0 -0 -0 -0 -1 -1 -1 -1 -0 -0 -0 -0 -1 -0 -0 -0 0 0 -0 -0 0 0 0 0 0 0 0 0 0 0 0 0 0 0 0 0 -0 -0 -0 -0 -0 -0 0 nan
nan 0 0 -0 -0 -1 -0 -1 0 -1 -2 -1 0 -0 -0 0 0 0 0 0 -0 0 0 -0 -0 0 0 0 0 0 0 0 0 0 0 0 1 0 0 0 0 0 -0 -0 -0 -0 0 0 nan
nan 0 -0 -0 -0 -0 -0 -1 0 0 -1 -0 -0 -0 -0 0 0 0 0 0 0 -0 0 0 0 0 0 0 0 0 0 0 0 0 0 0 0 0 0 0 0 0 -0 -0 -0 -0 0 0 nan
nan -0 -0 -0 -1 -1 -0 -1 -1 -0 -1 -0 -0 -1 -0 1 0 0 0 0 0 0 -0 0 0 0 0 0 0 0 0 0 0 0 0 0 0 0 -0 0 0 0 0 0 0 -0 -0 0 nan
nan -0 -0 -0 -0 -1 -0 -0 -0 -0 -1 -1 -0 -0 0 0 0 0 -0 0 0 0 0 0 0 -0 0 0 0 0 0 0 -0 0 0 1 1 0 0 0 0 0 0 0 -0 -0 -0 -0 nan
nan -0 -0 -0 -0 -1 -0 -1 -0 0 0 -1 -1 -0 -0 0 0 0 0 0 0 0 0 0 0 0 0 0 0 0 0 0 0 0 0 1 1 1 0 0 0 0 0 -0 -1 -0 -0 0 nan
nan -0 -0 -0 -0 -0 -1 -0 -2 -1 -0 -1 -1 0 -1 -0 0 0 0 0 0 0 0 0 0 0 0 0 0 0 0 0 0 0 0 0 1 1 0 1 1 1 0 -0 -0 -0 -0 0 nan
nan -0 -1 -1 -0 -0 -1 -0 -1 -0 -1 -1 -1 -1 -0 -0 0 0 0 -0 -1 -0 -0 -0 0 0 -0 0 0 0 0 0 0 0 -0 0 0 0 1 1 1 1 1 0 0 -0 -0 -0 nan
nan -0 -1 -1 -1 1 -0 -0 -0 -0 -0 -1 -0 -0 -0 -0 0 0 0 -0 -0 0 -0 0 0 0 -0 0 0 0 0 -0 0 0 -0 0 0 0 1 0 1 1 1 0 0 0 -0 0 nan
nan -0 -0 -0 -0 0 -0 -1 -1 -0 -0 -1 -1 0 0 -0 0 0 -0 -0 1 0 0 0 0 0 0 0 0 0 -0 -0 -0 0 0 0 -0 0 0 0 0 1 1 0 0 0 0 0 nan
nan -0 -1 -1 -1 -0 -0 -1 -0 -1 -1 -2 -2 -2 -1 -0 -0 -0 0 1 0 0 1 0 0 0 0 0 -0 -0 -0 -0 -0 0 0 0 -0 -0 0 0 1 1 2 1 0 0 0 0 nan
nan -0 -1 -1 -1 -1 -0 -1 -0 -2 -1 -2 -3 -3 -3 -5 -3 -2 -1 1 1 -0 0 -0 0 -0 0 -0 -0 -0 -0 0 0 0 0 0 0 0 0 -0 -0 -1 0 1 0 0 0 -0 nan
nan 0 -1 -0 -1 -0 -0 -0 -1 -1 -2 -2 -6 -6 -6 -5 -5 -5 -4 -4 -1 0 0 -0 0 -0 0 -0 -0 -0 0 0 0 0 0 0 0 -0 -0 -1 -1 -1 -1 -0 0 0 0 0 nan
nan -0 -0 -0 -0 -0 -0 0 -1 -2 -3 -5 -7 -7 -6 -4 -4 -3 -2 -2 -1 0 -0 0 0 1 -0 0 -0 0 0 0 0 0 0 0 -0 0 -0 -0 -1 -0 -1 0 -0 0 -0 0 nan
nan -0 -0 -0 -0 -0 -1 -0 -1 -4 -4 -4 -2 -3 -3 -5 -3 -4 -2 -2 -1 1 -1 1 0 0 -0 0 0 0 -0 0 0 0 0 0 0 0 1 0 -0 0 0 0 -0 -0 0 -0 nan
nan -0 -0 -0 -0 -0 -0 -0 -2 -4 -3 -1 -2 -2 -2 -4 -6 -5 -3 -1 -1 0 1 0 1 0 1 1 1 0 0 0 0 1 0 0 0 0 0 1 0 0 0 -0 -0 -0 0 -0 nan
nan -0 -0 -0 -0 0 -0 -0 -1 -1 -2 -2 -2 -2 -1 -1 -2 -3 -3 -2 -1 -1 1 1 1 2 0 -1 -1 -1 -0 -0 0 0 0 -1 0 0 0 0 -0 -0 -0 -0 0 0 0 0 nan
nan -0 -0 -0 -0 -0 0 -0 -1 -1 -1 -1 -1 -1 -1 -1 -1 -3 -5 -3 -3 -2 0 1 1 0 1 -1 0 2 1 1 0 0 -0 -0 1 1 0 0 0 0 1 1 0 0 -0 -0 nan
nan -1 -0 -1 -1 0 -0 -0 -1 -1 -1 -1 -1 -1 -1 -1 -0 -2 -4 -5 -4 -2 -1 -1 0 0 1 2 3 2 1 -0 -1 1 -0 1 1 -0 -0 1 1 2 2 1 -0 -0 -1 -0 nan
nan -0 -0 -0 -0 -0 -0 0 -1 -1 -1 -1 -1 -1 -1 -0 -0 -0 -1 -3 -3 -3 -2 -1 -0 0 0 2 0 -1 -0 -1 0 1 0 0 0 -0 0 0 2 0 0 -0 -0 -0 0 0 nan
nan -1 -0 -0 0 -0 -0 -0 -0 -1 -1 -1 -1 -1 -1 -1 -1 -0 -0 -1 -1 -2 -2 -1 -1 0 1 0 0 1 1 1 3 1 0 0 0 1 0 0 0 -0 1 -0 -0 1 1 0 nan
nan -1 -1 0 0 -0 0 0 -1 -0 -0 -1 -1 -1 -1 -1 -1 -1 -0 -0 -0 -0 -1 -1 -1 -0 0 -0 0 0 0 2 -0 -1 -1 -0 0 0 -1 -0 -0 1 0 -0 -0 0 0 -0 nan
nan -1 -0 0 0 0 -1 -1 -0 -0 -0 -1 -1 -1 -1 -1 -1 -1 -1 -1 -1 -1 -1 -2 -1 -1 -0 -0 0 1 0 -1 -2 -2 -2 1 -0 -1 -1 -1 -1 -0 -0 -1 -1 -0 -1 -1 nan
nan -0 -0 -0 -0 -0 -1 -0 0 -0 -0 -0 -0 -0 -1 -1 -0 -1 -1 -0 -1 -1 -1 -2 -2 -1 -1 -0 0 -0 0 0 -0 -2 2 2 -1 -0 -1 -1 -0 -0 -1 -1 -1 -1 -2 -1 nan
nan 0 -0 -0 -0 -0 -0 -0 0 -1 -1 -0 -0 -1 -0 -0 -0 -0 -0 -1 -1 -1 -1 -1 -1 -1 -1 -1 -0 -0 0 -0 -0 1 2 -1 -0 -0 -1 0 -0 -1 -1 -0 -0 -1 -1 -0 nan
nan -0 -0 -0 0 -0 -0 -0 -0 -1 -0 0 0 0 1 1 0 0 -0 -1 -1 -0 -0 -1 -0 -1 -1 -0 -0 -1 -1 -1 -0 -0 -0 -0 0 -0 0 0 0 0 1 0 -0 -0 1 1 nan
nan -1 0 0 -0 -0 -0 -0 0 0 0 0 0 1 1 0 1 1 0 -0 -1 -1 -1 -0 -1 -0 -1 -1 -1 -0 -1 0 0 0 -1 -1 1 -0 1 -0 1 0 -0 -0 1 0 1 -1 nan
nan nan nan nan nan nan nan nan nan nan nan nan nan nan nan nan nan nan nan nan nan nan nan nan nan nan nan nan nan nan nan nan nan nan nan nan nan nan nan nan nan nan nan nan nan nan nan nan nan
Wind_Speed
3 4 3 3 3 4 5 7 3 11 9 18 24 4 7 2 3 3 15 15 16 20 20 21 20 20 19 19 21 24 25 26 27 27 26 27 29 29 31 31 31 27 25 22 22 21 19 18 18
3 5 2 2 4 1 5 4 9 11 20 29 24 5 4 3 9 10 17 14 18 15 18 20 20 19 18 19 21 24 26 27 27 28 28 29 30 29 31 31 30 26 23 21 21 21 22 21 23
5 5 2 4 4 6 5 5 6 17 29 29 17 9 8 12 11 23 13 18 16 12 15 19 19 18 18 19 21 25 26 28 28 29 29 30 30 29 30 31 28 24 22 22 23 25 24 26 28
5 3 2 2 8 7 5 14 16 20 34 28 17 6 7 8 21 17 21 18 15 10 17 18 18 18 18 19 21 24 27 28 29 30 30 31 31 31 32 30 27 23 22 23 26 28 30 31 28
1 2 0 3 7 6 5 11 23 13 10 8 7 3 4 13 14 19 22 18 12 14 19 18 17 17 18 19 21 25 28 30 30 30 31 31 32 33 32 30 28 22 22 26 29 35 34 30 25
2 1 1 4 7 7 5 17 18 20 16 11 7 8 4 20 19 21 20 17 9 11 18 16 15 16 18 20 22 26 29 30 31 30 32 33 34 35 32 29 26 24 23 30 35 37 32 28 24
4 3 4 5 7 10 4 13 9 15 19 14 14 4 9 22 22 20 18 15 10 10 13 14 15 17 18 20 23 26 30 30 31 31 31 32 36 35 30 28 29 24 26 34 38 35 33 28 23
3 4 3 4 2 10 4 14 19 19 16 31 23 3 5 22 20 22 19 15 13 11 10 12 16 17 19 21 24 26 29 30 31 30 30 34 33 32 29 27 24 23 29 37 37 34 32 25 21
9 2 3 5 2 7 26 7 21 22 21 27 25 6 20 23 21 23 22 20 18 15 13 14 18 18 19 22 25 27 29 31 31 31 31 35 34 30 28 27 26 23 30 36 37 36 29 25 20
3 4 7 7 5 10 21 10 16 11 13 20 29 14 12 17 15 22 25 23 21 17 15 15 18 19 20 23 27 30 31 33 32 32 32 32 34 32 27 27 25 27 34 35 40 35 30 26 22
3 6 9 17 28 21 13 11 6 8 6 19 22 18 4 13 17 17 20 20 14 16 14 15 18 20 22 26 29 33 34 34 32 31 31 34 35 32 29 28 29 38 38 39 39 35 29 24 25
5 8 6 8 9 8 7 20 15 5 7 23 26 30 21 13 16 20 25 23 23 21 17 18 19 22 23 26 31 34 36 36 35 34 31 32 34 30 28 29 31 40 43 42 39 36 30 29 24
3 3 19 18 17 17 18 15 10 15 26 26 27 30 39 32 18 18 19 26 30 26 24 23 21 22 22 25 31 35 37 36 36 34 32 30 31 28 27 30 37 45 46 44 40 37 31 27 27
9 15 19 14 21 12 14 11 13 28 41 39 35 34 33 39 41 35 32 22 29 34 30 24 25 25 24 24 30 35 36 37 37 34 32 32 26 26 32 36 38 40 42 43 41 38 34 27 24
16 7 7 6 17 6 17 6 6 29 36 33 36 36 35 36 31 29 23 30 28 29 38 27 28 28 28 25 28 32 35 37 36 36 32 33 26 29 37 37 36 38 42 44 41 38 32 26 21
5 4 5 6 10 6 6 7 8 27 33 33 39 42 41 34 37 35 35 19 12 34 37 34 34 31 31 29 29 33 35 38 36 36 39 32 34 35 36 35 37 42 41 44 43 39 31 27 24
7 4 7 6 6 4 6 6 17 34 29 29 31 35 38 42 38 39 35 32 12 24 38 42 38 37 32 33 30 32 33 35 38 40 40 36 36 36 31 32 36 39 42 43 43 39 34 29 28
6 7 5 4 8 6 7 9 17 36 36 29 32 37 40 43 44 43 36 32 24 10 34 44 42 39 35 37 32 30 33 35 38 44 44 44 40 38 35 31 34 38 40 42 43 40 34 30 31
4 5 6 6 8 8 7 7 14 24 33 33 34 36 41 42 42 41 36 32 28 11 10 37 45 44 41 40 39 36 36 37 39 50 49 46 42 38 29 28 34 39 41 42 41 43 37 37 34
7 5 6 7 12 7 4 6 15 22 24 28 32 37 42 47 52 50 41 33 30 26 2 25 30 46 46 43 44 40 40 39 41 50 52 44 39 42 41 37 36 40 39 41 41 44 38 38 36
10 15 17 14 15 5 3 4 13 15 25 33 35 35 37 41 45 47 48 37 32 30 17 6 27 30 49 47 43 39 39 38 37 47 51 48 47 44 49 53 48 44 36 40 43 42 43 40 35
15 18 20 16 9 3 6 4 14 16 18 25 35 39 39 43 41 41 43 43 35 32 27 14 9 32 30 43 42 46 46 47 44 46 51 43 48 44 45 50 53 45 43 35 42 42 41 40 37
15 21 19 15 12 4 0 3 8 14 17 21 30 35 38 37 38 38 38 39 39 34 30 22 7 13 28 27 43 46 47 46 47 45 45 46 48 49 45 50 46 42 51 41 41 42 41 36 37
21 19 17 10 5 4 5 4 9 9 15 20 28 33 36 38 36 35 37 39 40 36 31 25 19 2 15 31 29 45 48 46 45 43 43 46 52 48 49 53 54 50 56 49 41 41 33 36 40
25 14 4 4 4 3 12 13 6 14 16 19 24 31 35 36 38 40 40 43 46 41 39 29 25 16 4 21 27 31 42 43 48 47 43 41 55 53 51 57 59 52 44 43 40 40 35 38 41
17 10 3 4 4 5 11 6 4 13 21 21 24 29 34 38 40 41 38 40 43 44 41 33 27 24 8 7 16 18 30 38 41 41 37 57 54 60 54 55 57 59 51 51 42 37 38 34 38
14 12 16 6 8 1 4 4 7 19 20 26 27 32 35 37 40 42 43 39 43 43 41 37 34 24 17 8 9 23 25 32 42 44 47 51 52 56 56 57 55 61 54 48 44 41 44 41 40
12 11 5 3 3 6 3 4 7 16 18 19 23 28 32 37 38 43 45 39 41 43 43 39 33 28 21 14 8 14 19 29 35 44 47 48 51 55 58 61 58 57 55 47 47 45 44 46 43
11 8 5 0 4 3 3 2 10 7 11 14 20 26 28 32 33 34 40 42 36 37 42 45 36 32 23 18 11 10 18 29 32 40 46 45 45 49 58 57 61 59 58 55 53 51 49 50 48
13 11 8 3 6 5 3 2 7 9 12 16 20 26 27 27 29 33 32 36 38 35 42 44 42 35 30 22 17 10 14 21 34 42 42 47 49 46 52 56 60 59 60 64 58 55 57 50 49
Wind_Direction
262 214 170 156 65 63 257 252 331 290 333 309 258 213 132 98 136 211 137 156 171 168 164 166 168 173 175 174 173 170 167 165 163 164 165 159 154 158 157 151 147 148 147 144 146 149 153 148 149
191 167 169 104 97 138 266 236 245 255 260 287 290 192 80 81 125 155 149 150 164 169 168 168 170 175 176 176 174 172 169 167 164 163 165 163 159 161 159 154 150 150 147 148 148 151 152 151 148
188 199 180 135 158 208 244 251 270 300 297 285 281 98 130 124 152 155 159 157 163 159 167 166 171 175 174 175 175 175 171 169 167 165 166 165 163 161 163 157 152 150 150 148 149 151 150 148 142
140 185 224 144 237 255 250 290 306 301 296 292 256 91 102 166 155 167 164 165 163 164 165 167 174 174 172 175 177 176 174 172 171 168 167 166 163 165 164 156 152 152 151 148 151 146 145 141 139
208 175 27 249 258 263 280 291 299 298 286 299 1 60 63 152 176 160 166 166 166 155 160 166 173 171 172 175 178 179 176 174 174 171 168 167 164 165 164 158 153 150 149 152 147 145 143 141 145
320 96 78 247 261 278 305 310 307 329 300 336 6 102 72 138 149 161 171 166 177 152 156 166 172 172 174 176 180 180 179 178 175 173 169 166 166 167 163 156 152 148 146 152 149 148 146 146 146
155 81 230 250 276 296 305 332 341 349 337 349 358 79 140 148 161 165 177 176 177 168 167 172 180 176 177 179 182 180 180 180 177 174 171 169 171 169 166 159 150 145 154 153 151 149 148 150 156
231 111 265 258 288 280 304 339 347 352 330 344 12 133 174 163 168 167 177 182 178 183 189 195 189 185 181 182 183 181 181 180 178 174 174 171 175 172 170 166 163 154 156 155 154 152 151 155 162
243 85 259 262 299 271 305 331 314 325 334 334 355 356 172 166 174 174 174 179 184 195 198 191 190 188 185 185 182 181 182 182 178 177 177 175 178 180 179 178 167 157 159 160 159 156 155 157 150
142 145 237 216 240 281 286 303 308 320 332 333 333 33 148 177 190 189 187 192 196 202 201 200 196 192 188 188 183 183 182 184 184 184 181 183 183 181 179 183 182 178 160 163 162 159 159 155 158
228 209 236 264 272 289 301 323 9 345 342 331 323 327 261 213 208 219 217 221 227 216 212 205 203 195 191 189 186 185 185 186 188 188 188 188 190 191 190 188 188 168 165 168 164 163 163 160 168
309 275 254 281 331 324 302 322 323 298 302 326 322 317 322 199 233 231 228 235 224 216 214 205 204 198 193 193 192 189 187 188 190 191 190 187 193 194 194 195 197 182 168 169 170 168 170 164 178
225 305 321 321 341 5 0 338 301 338 5 355 349 332 311 305 271 255 262 246 230 225 219 214 211 203 193 194 194 194 192 191 193 192 191 193 197 189 198 201 195 179 172 172 172 169 167 174 182
307 317 312 339 15 18 4 320 3 2 357 353 353 344 339 317 305 302 297 260 238 229 226 219 216 208 198 198 198 197 196 194 195 196 196 200 190 191 202 180 172 181 182 174 173 171 175 180 181
301 305 341 34 13 18 356 354 20 359 352 350 355 354 357 23 34 9 349 304 246 239 223 230 215 209 204 201 203 202 201 198 198 196 198 186 188 188 177 176 179 175 172 173 173 176 179 181 184
342 35 24 326 27 7 49 283 335 7 358 3 25 15 14 14 7 7 13 352 279 239 223 224 215 207 205 204 203 204 204 202 199 197 188 186 184 182 185 183 178 177 178 177 178 181 182 188 188
7 302 321 336 26 342 40 308 329 11 26 30 23 18 12 6 359 356 1 14 353 224 230 213 209 206 204 203 205 206 206 208 200 196 189 186 188 188 187 187 184 181 181 182 182 184 191 193 191
293 306 284 301 341 352 11 325 21 34 34 25 21 16 13 7 359 349 351 4 19 219 221 218 209 205 204 202 200 206 206 208 207 197 191 189 184 190 187 186 193 188 186 185 187 190 196 202 192
348 345 324 352 6 342 347 344 57 38 32 19 14 15 12 7 357 354 351 1 12 40 196 213 211 205 201 201 200 201 204 206 212 197 195 198 191 188 184 191 204 195 193 192 192 197 201 200 200
11 13 342 309 342 330 328 337 62 42 31 21 13 12 9 4 1 359 355 359 11 12 78 197 207 214 206 206 207 206 203 204 210 203 203 207 200 195 192 186 203 200 199 201 200 201 199 196 187
340 17 346 319 330 266 334 75 58 23 25 16 14 10 11 8 1 357 358 357 3 9 10 329 204 209 215 210 202 198 198 202 202 211 207 206 206 201 191 191 195 196 207 212 206 207 208 197 192
327 355 333 319 336 292 63 289 39 13 17 18 7 6 2 5 2 359 359 359 0 1 5 1 226 211 211 212 203 200 197 198 208 212 213 212 204 209 204 198 197 203 215 220 215 212 214 209 201
300 308 294 285 276 265 7 138 355 16 10 7 2 359 1 1 1 360 2 359 360 358 359 3 359 208 211 206 213 205 199 204 202 208 214 213 206 208 206 194 189 205 214 225 220 209 209 215 219
309 295 291 250 228 204 141 172 39 20 6 3 356 353 358 356 358 1 6 5 8 4 1 8 8 302 214 212 216 210 206 196 200 205 208 212 209 206 203 197 200 198 206 214 218 215 204 215 218
333 307 304 206 181 229 108 72 47 27 12 12 357 351 352 355 357 357 4 8 9 8 4 2 10 5 311 217 218 203 210 203 205 199 206 214 212 212 208 202 205 202 208 211 213 218 211 209 220
319 322 274 283 225 133 60 97 72 42 26 12 4 357 355 357 358 0 358 5 6 7 7 0 3 6 350 229 223 228 204 209 226 211 207 215 215 215 217 206 207 207 208 218 217 214 199 210 220
320 335 288 264 242 108 65 359 60 21 19 8 1 359 355 353 357 359 2 6 7 6 7 4 2 1 5 328 236 219 219 210 215 223 217 213 212 217 218 211 209 210 212 211 212 203 214 219 225
327 333 344 331 297 101 70 65 6 16 7 359 357 356 357 359 358 1 4 2 5 7 10 8 5 2 3 354 297 244 239 212 221 229 228 224 219 216 219 219 217 211 210 210 210 213 214 219 225
353 353 347 105 5 37 79 45 355 20 359 353 350 353 358 4 359 358 5 7 358 2 12 12 9 7 2 1 338 271 248 237 228 222 231 230 224 223 219 223 221 220 212 212 215 218 218 223 227
20 2 350 15 5 58 91 228 351 343 338 342 344 349 347 355 0 359 2 6 10 2 11 12 14 11 12 7 348 303 257 233 235 232 230 236 230 225 226 221 223 225 217 216 218 222 227 224 227
Height
1503 1503 1505 1507 1518 1521 1518 1501 1487 1484 1482 1470 1465 1461 1465 1468 1468 1481 1471 1474 1477 1479 1480 1484 1486 1490 1492 1495 1498 1501 1503 1504 1506 1509 1511 1514 1514 1518 1520 1521 1523 1526 1529 1532 1536 1540 1543 1545 1547
1502 1504 1506 1506 1523 1528 1508 1489 1489 1482 1476 1472 1469 1460 1461 1469 1466 1468 1470 1473 1478 1478 1479 1482 1486 1489 1491 1495 1497 1500 1502 1504 1506 1509 1512 1514 1516 1519 1522 1522 1524 1527 1531 1534 1537 1540 1543 1546 1549
1501 1504 1506 1509 1523 1521 1510 1487 1484 1479 1475 1469 1465 1459 1460 1462 1467 1468 1471 1474 1478 1477 1478 1481 1486 1489 1491 1494 1496 1499 1502 1504 1507 1509 1512 1515 1516 1518 1523 1524 1525 1529 1532 1535 1538 1541 1545 1548 1551
1501 1505 1507 1511 1512 1501 1494 1486 1486 1478 1463 1461 1458 1459 1462 1462 1464 1467 1472 1475 1478 1478 1478 1481 1485 1488 1490 1493 1495 1498 1501 1504 1507 1509 1511 1515 1516 1519 1523 1525 1527 1530 1533 1536 1539 1543 1547 1550 1551
1501 1503 1511 1512 1504 1493 1489 1489 1485 1478 1468 1461 1457 1461 1462 1464 1466 1467 1471 1474 1477 1477 1478 1481 1484 1488 1490 1492 1494 1497 1500 1503 1507 1509 1511 1513 1516 1521 1525 1525 1528 1531 1534 1537 1541 1545 1549 1551 1553
1502 1503 1516 1519 1505 1490 1488 1489 1484 1476 1468 1462 1460 1463 1468 1466 1466 1470 1473 1475 1477 1476 1479 1481 1484 1486 1489 1491 1494 1496 1500 1503 1506 1509 1511 1512 1517 1521 1525 1527 1529 1532 1535 1539 1542 1546 1550 1553 1555
1502 1506 1512 1507 1501 1490 1487 1486 1484 1478 1473 1470 1465 1468 1472 1472 1470 1469 1472 1475 1477 1479 1479 1481 1483 1485 1489 1491 1493 1496 1500 1502 1506 1509 1511 1513 1518 1521 1525 1528 1530 1534 1537 1540 1543 1548 1552 1555 1557
1499 1502 1505 1504 1501 1493 1483 1485 1484 1481 1476 1474 1472 1471 1474 1471 1473 1472 1473 1474 1475 1477 1479 1481 1482 1484 1487 1490 1493 1496 1500 1502 1506 1508 1511 1513 1519 1521 1525 1528 1531 1534 1538 1542 1545 1550 1554 1556 1558
1497 1507 1514 1505 1498 1489 1481 1484 1483 1482 1479 1473 1475 1472 1469 1471 1471 1473 1473 1474 1475 1476 1478 1479 1481 1483 1486 1489 1492 1496 1500 1502 1505 1508 1511 1513 1517 1522 1525 1528 1531 1536 1539 1543 1546 1551 1555 1557 1560
1495 1508 1502 1492 1488 1486 1480 1483 1483 1480 1477 1474 1471 1477 1479 1479 1476 1474 1473 1473 1474 1475 1476 1478 1480 1482 1485 1488 1491 1494 1498 1501 1504 1506 1508 1510 1515 1520 1525 1528 1532 1536 1540 1544 1548 1552 1555 1558 1561
1492 1499 1490 1486 1484 1485 1484 1481 1482 1481 1480 1479 1476 1478 1481 1479 1476 1476 1475 1474 1472 1474 1475 1476 1478 1480 1483 1485 1489 1492 1494 1499 1502 1505 1508 1511 1515 1518 1521 1525 1529 1534 1539 1544 1548 1552 1556 1560 1562
1494 1487 1487 1486 1486 1485 1483 1478 1476 1477 1481 1479 1476 1471 1473 1476 1476 1476 1473 1473 1472 1473 1474 1476 1477 1478 1481 1483 1486 1489 1491 1496 1499 1503 1505 1507 1512 1515 1517 1521 1525 1530 1536 1541 1546 1552 1556 1561 1564
1489 1487 1484 1484 1484 1482 1479 1479 1475 1476 1480 1478 1473 1471 1463 1469 1469 1472 1471 1471 1472 1473 1472 1473 1475 1477 1479 1481 1484 1487 1490 1493 1497 1501 1504 1505 1506 1512 1516 1518 1522 1528 1532 1539 1545 1551 1556 1559 1563
1488 1486 1483 1483 1482 1479 1478 1475 1472 1475 1472 1469 1472 1473 1469 1463 1460 1464 1466 1466 1465 1469 1471 1471 1473 1475 1476 1479 1482 1485 1488 1491 1495 1499 1502 1504 1506 1511 1512 1515 1520 1524 1531 1539 1545 1550 1555 1559 1563
1488 1488 1483 1484 1484 1482 1478 1477 1478 1481 1476 1475 1475 1474 1470 1467 1459 1458 1457 1461 1457 1456 1461 1467 1468 1471 1474 1476 1479 1482 1486 1490 1493 1496 1500 1501 1503 1509 1514 1517 1522 1527 1532 1539 1546 1551 1554 1558 1562
1490 1491 1498 1489 1487 1486 1483 1488 1483 1485 1484 1483 1480 1477 1472 1468 1466 1459 1458 1454 1455 1452 1453 1458 1461 1463 1467 1471 1474 1478 1482 1487 1491 1495 1498 1501 1503 1508 1514 1518 1523 1528 1533 1539 1545 1548 1552 1556 1561
1503 1506 1500 1498 1493 1492 1487 1488 1480 1490 1487 1487 1486 1483 1480 1472 1465 1461 1457 1451 1449 1451 1451 1447 1453 1459 1461 1466 1469 1474 1477 1484 1489 1492 1495 1499 1502 1508 1514 1520 1525 1529 1534 1539 1544 1548 1551 1554 1559
1511 1508 1504 1504 1499 1492 1491 1489 1489 1491 1490 1494 1491 1489 1484 1479 1474 1466 1459 1454 1446 1444 1447 1450 1447 1452 1456 1463 1467 1472 1474 1480 1485 1488 1492 1496 1498 1503 1510 1518 1524 1529 1534 1538 1542 1547 1550 1553 1557
1507 1507 1506 1502 1500 1497 1494 1493 1498 1502 1498 1498 1495 1492 1490 1485 1480 1472 1461 1453 1446 1440 1442 1453 1451 1447 1451 1457 1460 1462 1468 1474 1480 1483 1488 1491 1495 1505 1508 1517 1524 1528 1532 1535 1539 1545 1548 1550 1553
1510 1509 1513 1502 1499 1497 1497 1498 1502 1507 1511 1509 1504 1497 1492 1483 1474 1468 1459 1452 1447 1443 1438 1441 1449 1449 1442 1447 1451 1453 1457 1464 1473 1480 1485 1489 1493 1497 1504 1510 1521 1525 1529 1533 1536 1540 1543 1546 1549
1520 1521 1519 1513 1500 1494 1493 1500 1506 1511 1511 1509 1508 1506 1498 1492 1485 1476 1464 1456 1448 1442 1440 1438 1439 1444 1449 1442 1447 1454 1457 1464 1469 1473 1478 1482 1487 1494 1496 1502 1512 1518 1525 1527 1532 1534 1539 1543 1547
1528 1518 1517 1510 1509 1510 1496 1515 1514 1515 1512 1512 1511 1507 1502 1495 1491 1485 1474 1461 1451 1445 1442 1437 1435 1440 1444 1448 1448 1442 1445 1451 1457 1465 1473 1479 1483 1487 1492 1496 1504 1514 1520 1523 1527 1530 1534 1538 1542
1528 1520 1513 1507 1505 1504 1497 1509 1530 1519 1516 1515 1516 1515 1508 1501 1495 1490 1479 1470 1459 1450 1442 1436 1433 1434 1439 1442 1446 1443 1439 1444 1449 1458 1469 1475 1479 1482 1487 1492 1496 1505 1513 1517 1521 1525 1528 1534 1539
1527 1511 1503 1496 1497 1505 1498 1500 1532 1531 1533 1527 1523 1518 1512 1504 1497 1491 1483 1472 1460 1451 1442 1436 1433 1432 1432 1435 1438 1440 1441 1439 1444 1453 1462 1470 1475 1479 1483 1489 1491 1496 1503 1507 1513 1517 1522 1529 1534
1524 1511 1507 1498 1495 1486 1502 1515 1536 1540 1537 1534 1529 1522 1515 1507 1497 1488 1480 1470 1459 1451 1444 1437 1433 1430 1428 1429 1435 1435 1441 1443 1438 1444 1449 1461 1467 1472 1475 1482 1487 1492 1499 1504 1506 1512 1517 1522 1527
1525 1519 1512 1501 1483 1493 1511 1533 1540 1542 1540 1538 1534 1526 1516 1504 1496 1488 1482 1473 1464 1454 1447 1439 1433 1429 1426 1426 1428 1429 1434 1439 1444 1442 1440 1445 1453 1462 1472 1478 1484 1487 1493 1501 1505 1508 1510 1516 1521
1527 1517 1508 1505 1489 1494 1527 1535 1525 1535 1535 1536 1533 1526 1516 1505 1496 1487 1481 1475 1467 1460 1452 1443 1435 1429 1426 1424 1424 1427 1431 1435 1437 1442 1442 1446 1450 1457 1466 1472 1478 1481 1487 1494 1500 1501 1506 1510 1516
1525 1518 1510 1500 1494 1514 1536 1546 1547 1541 1539 1537 1534 1529 1520 1508 1497 1488 1481 1476 1468 1461 1453 1446 1438 1431 1424 1422 1421 1421 1425 1429 1433 1436 1438 1441 1446 1454 1461 1465 1471 1476 1481 1488 1493 1496 1502 1506 1511
1529 1524 1519 1515 1513 1508 1542 1553 1551 1546 1545 1540 1537 1531 1523 1514 1505 1498 1490 1481 1476 1467 1458 1449 1440 1431 1421 1416 1414 1416 1418 1420 1426 1430 1433 1437 1442 1446 1450 1457 1463 1468 1475 1480 1484 1487 1493 1499 1504
1544 1538 1524 1523 1532 1526 1542 1567 1552 1548 1544 1539 1534 1528 1521 1516 1511 1504 1499 1491 1482 1473 1462 1452 1441 1431 1423 1416 1412 1410 1411 1416 1420 1424 1427 1432 1435 1439 1442 1448 1455 1459 1466 1471 1476 1481 1486 1491 1497